| time (UTC) | temp F | wind direction | speed MPH | gust MPH | rain 1hr in | rain 24hr in | rain mn in | humidity % | barometer mb |
| 20260503013203 | 51 | 246 | 0.0 | 0.0 | 0.00 | 0.00 | 0.00 | 88 | 1010.2 |
| 20260503012203 | 51 | 246 | 0.0 | 0.0 | 0.00 | 0.00 | 0.00 | 88 | 1010.4 |
| 20260503011204 | 51 | 246 | 0.0 | 0.0 | 0.00 | 0.00 | 0.00 | 88 | 1010.4 |
| 20260503010203 | 51 | 246 | 0.0 | 0.0 | 0.00 | 0.00 | 0.00 | 88 | 1010.2 |
| 20260503005203 | 51 | 246 | 0.0 | 0.0 | 0.00 | 0.00 | 0.00 | 88 | 1010.1 |
| 20260503004203 | 51 | 246 | 0.0 | 0.0 | 0.00 | 0.00 | 0.00 | 88 | 1009.9 |
| 20260503003203 | 51 | 246 | 0.0 | 0.0 | 0.00 | 0.00 | 0.00 | 88 | 1009.9 |
| 20260503002204 | 51 | 246 | 0.0 | 0.0 | 0.00 | 0.00 | 0.00 | 87 | 1009.9 |
| 20260503001204 | 51 | 246 | 0.0 | 0.0 | 0.00 | 0.00 | 0.00 | 87 | 1010.0 |
| 20260503000233 | 51 | 246 | 0.0 | 0.0 | 0.00 | 0.00 | 0.00 | 87 | 1009.9 |
| 20260503000203 | 51 | 246 | 0.0 | 0.0 | 0.00 | 0.00 | 0.00 | 87 | 1009.9 |
| 20260502235204 | 51 | 246 | 0.0 | 0.0 | 0.00 | 0.00 | 0.00 | 86 | 1010.0 |
| 20260502234204 | 52 | 246 | 0.0 | 0.0 | 0.00 | 0.00 | 0.00 | 86 | 1010.0 |
| 20260502233203 | 52 | 246 | 0.0 | 0.0 | 0.00 | 0.00 | 0.00 | 86 | 1010.1 |
| 20260502232203 | 52 | 246 | 0.0 | 0.0 | 0.00 | 0.00 | 0.00 | 86 | 1010.1 |
| 20260502231203 | 52 | 246 | 0.0 | 0.0 | 0.00 | 0.00 | 0.00 | 85 | 1010.0 |
| 20260502230203 | 52 | 246 | 0.0 | 0.0 | 0.00 | 0.00 | 0.00 | 85 | 1010.1 |
| 20260502225204 | 52 | 246 | 0.0 | 0.0 | 0.00 | 0.00 | 0.00 | 85 | 1010.2 |
| 20260502224204 | 52 | 246 | 0.0 | 0.0 | 0.00 | 0.00 | 0.00 | 85 | 1010.2 |
| 20260502223204 | 52 | 246 | 0.0 | 0.0 | 0.00 | 0.00 | 0.00 | 85 | 1010.1 |
| 20260502222204 | 52 | 246 | 0.0 | 0.0 | 0.00 | 0.00 | 0.00 | 84 | 1010.0 |
| 20260502221205 | 52 | 246 | 0.0 | 0.0 | 0.00 | 0.00 | 0.00 | 84 | 1010.0 |
| 20260502220202 | 52 | 205 | 0.0 | 0.0 | 0.00 | 0.00 | 0.00 | 84 | 1009.9 |
| 20260502215203 | 52 | 253 | 1.0 | 2.0 | 0.00 | 0.00 | 0.00 | 84 | 1009.9 |
| 20260502214203 | 52 | 301 | 2.0 | 2.0 | 0.00 | 0.00 | 0.00 | 84 | 1009.9 |
| 20260502213204 | 52 | 231 | 2.0 | 2.0 | 0.00 | 0.00 | 0.00 | 84 | 1009.7 |
| 20260502212203 | 52 | 200 | 0.0 | 1.0 | 0.00 | 0.00 | 0.00 | 84 | 1009.7 |
| 20260502211203 | 52 | 226 | 1.0 | 3.0 | 0.00 | 0.00 | 0.00 | 84 | 1009.9 |
| 20260502210203 | 52 | 221 | 0.0 | 0.0 | 0.00 | 0.00 | 0.00 | 85 | 1009.8 |
| 20260502205204 | 52 | 246 | 1.0 | 2.0 | 0.00 | 0.00 | 0.00 | 85 | 1010.0 |
| 20260502204202 | 53 | 259 | 2.0 | 5.0 | 0.00 | 0.00 | 0.00 | 85 | 1010.1 |
| 20260502203203 | 52 | 259 | 2.0 | 3.0 | 0.00 | 0.00 | 0.00 | 85 | 1010.2 |
| 20260502202203 | 53 | 222 | 1.0 | 3.0 | 0.00 | 0.00 | 0.00 | 85 | 1010.2 |
| 20260502201204 | 52 | 221 | 1.0 | 2.0 | 0.00 | 0.00 | 0.00 | 85 | 1010.2 |
| 20260502200233 | 52 | 240 | 1.0 | 3.0 | 0.00 | 0.00 | 0.00 | 85 | 1010.3 |
| 20260502200202 | 52 | 240 | 1.0 | 3.0 | 0.00 | 0.00 | 0.00 | 85 | 1010.3 |
| 20260502195204 | 52 | 250 | 2.0 | 4.0 | 0.00 | 0.00 | 0.00 | 85 | 1010.4 |
| 20260502194203 | 52 | 217 | 3.0 | 4.0 | 0.00 | 0.00 | 0.00 | 85 | 1010.5 |
| 20260502193203 | 52 | 200 | 2.0 | 4.0 | 0.00 | 0.00 | 0.00 | 86 | 1010.7 |
| 20260502192204 | 52 | 139 | 2.0 | 4.0 | 0.00 | 0.00 | 0.00 | 86 | 1010.6 |
| 20260502191203 | 52 | 246 | 3.0 | 5.0 | 0.00 | 0.00 | 0.00 | 85 | 1011.0 |
| 20260502190203 | 52 | 202 | 2.0 | 5.0 | 0.00 | 0.00 | 0.00 | 84 | 1011.0 |
| 20260502185204 | 53 | 252 | 2.0 | 4.0 | 0.00 | 0.00 | 0.00 | 82 | 1011.1 |
| 20260502184202 | 53 | 214 | 2.0 | 3.0 | 0.00 | 0.00 | 0.00 | 82 | 1011.3 |
| 20260502183203 | 54 | 248 | 1.0 | 5.0 | 0.00 | 0.00 | 0.00 | 80 | 1011.3 |
| 20260502182204 | 53 | 218 | 2.0 | 5.0 | 0.00 | 0.00 | 0.00 | 79 | 1011.4 |
| 20260502181233 | 53 | 240 | 2.0 | 4.0 | 0.00 | 0.00 | 0.00 | 79 | 1011.2 |
| 20260502181202 | 53 | 240 | 2.0 | 4.0 | 0.00 | 0.00 | 0.00 | 79 | 1011.2 |
| 20260502180203 | 53 | 276 | 3.0 | 5.0 | 0.00 | 0.00 | 0.00 | 79 | 1011.3 |
| 20260502170203 | 53 | 236 | 3.0 | 3.0 | 0.00 | 0.00 | 0.00 | 76 | 1011.5 |
| 20260502164233 | 54 | 176 | 2.0 | 4.0 | 0.00 | 0.00 | 0.00 | 78 | 1011.6 |
| 20260502164203 | 53 | 262 | 2.0 | 3.0 | 0.00 | 0.00 | 0.00 | 78 | 1011.6 |
| 20260502163233 | 53 | 270 | 2.0 | 5.0 | 0.00 | 0.00 | 0.00 | 77 | 1011.6 |
| 20260502163202 | 53 | 235 | 3.0 | 5.0 | 0.00 | 0.00 | 0.00 | 77 | 1011.6 |
| 20260502162203 | 54 | 222 | 1.0 | 6.0 | 0.00 | 0.00 | 0.00 | 77 | 1011.5 |
| 20260502161233 | 54 | 281 | 3.0 | 7.0 | 0.00 | 0.00 | 0.00 | 76 | 1011.6 |
| 20260502161203 | 54 | 245 | 3.0 | 7.0 | 0.00 | 0.00 | 0.00 | 76 | 1011.6 |
| 20260502160233 | 54 | 243 | 2.0 | 2.0 | 0.00 | 0.00 | 0.00 | 76 | 1011.6 |
| 20260502160203 | 55 | 257 | 4.0 | 7.0 | 0.00 | 0.00 | 0.00 | 74 | 1012.0 |
| 20260502152204 | 55 | 198 | 2.0 | 3.0 | 0.00 | 0.00 | 0.00 | 76 | 1011.8 |
| 20260502151204 | 55 | 110 | 2.0 | 4.0 | 0.00 | 0.00 | 0.00 | 77 | 1011.9 |
| 20260502150202 | 56 | 191 | 3.0 | 4.0 | 0.00 | 0.00 | 0.00 | 76 | 1012.2 |
| 20260502130203 | 52 | 256 | 2.0 | 3.0 | 0.00 | 0.00 | 0.00 | 80 | 1012.6 |
| 20260502123203 | 53 | 252 | 2.0 | 2.0 | 0.00 | 0.00 | 0.00 | 82 | 1012.6 |
| 20260502122203 | 51 | 277 | 2.0 | 4.0 | 0.00 | 0.00 | 0.00 | 82 | 1012.6 |
| 20260502121203 | 51 | 229 | 0.0 | 1.0 | 0.00 | 0.00 | 0.00 | 83 | 1012.4 |
| 20260502120204 | 52 | 274 | 3.0 | 5.0 | 0.00 | 0.00 | 0.00 | 83 | 1012.4 |
| 20260502115202 | 50 | 259 | 2.0 | 3.0 | 0.00 | 0.00 | 0.00 | 84 | 1012.3 |
| 20260502114203 | 50 | 221 | 3.0 | 3.0 | 0.00 | 0.00 | 0.00 | 85 | 1012.3 |
| 20260502113203 | 50 | 210 | 1.0 | 4.0 | 0.00 | 0.00 | 0.00 | 86 | 1012.3 |
| 20260502112203 | 50 | 245 | 2.0 | 5.0 | 0.00 | 0.00 | 0.00 | 86 | 1012.4 |
| 20260502111203 | 49 | 280 | 2.0 | 4.0 | 0.00 | 0.00 | 0.00 | 86 | 1012.2 |
| 20260502110203 | 49 | 238 | 1.0 | 2.0 | 0.00 | 0.00 | 0.00 | 86 | 1012.0 |
| 20260502105203 | 49 | 245 | 2.0 | 2.0 | 0.00 | 0.00 | 0.00 | 86 | 1012.0 |
| 20260502104202 | 49 | 246 | 2.0 | 2.0 | 0.00 | 0.00 | 0.00 | 86 | 1012.1 |
| 20260502103204 | 48 | 202 | 0.0 | 3.0 | 0.00 | 0.00 | 0.00 | 86 | 1011.9 |
| 20260502102203 | 48 | 218 | 1.0 | 3.0 | 0.00 | 0.00 | 0.00 | 85 | 1011.8 |
| 20260502101202 | 48 | 259 | 2.0 | 3.0 | 0.00 | 0.00 | 0.00 | 84 | 1011.8 |
| 20260502100203 | 48 | 232 | 2.0 | 2.0 | 0.00 | 0.00 | 0.00 | 84 | 1011.6 |
| 20260502091202 | 46 | 236 | 4.0 | 4.0 | 0.00 | 0.00 | 0.00 | 82 | 1011.6 |
| 20260502090204 | 47 | 255 | 1.0 | 3.0 | 0.00 | 0.00 | 0.00 | 81 | 1011.6 |
| 20260502071233 | 48 | 249 | 3.0 | 3.0 | 0.00 | 0.00 | 0.00 | 78 | 1011.5 |
| 20260502071202 | 48 | 252 | 3.0 | 3.0 | 0.00 | 0.00 | 0.00 | 78 | 1011.5 |
| 20260502070203 | 48 | 256 | 2.0 | 5.0 | 0.00 | 0.00 | 0.00 | 78 | 1011.6 |
| 20260502065203 | 48 | 259 | 2.0 | 4.0 | 0.00 | 0.00 | 0.00 | 77 | 1011.6 |
| 20260502064234 | 50 | 246 | 4.0 | 4.0 | 0.00 | 0.00 | 0.00 | 76 | 1011.5 |
| 20260502064203 | 50 | 246 | 4.0 | 4.0 | 0.00 | 0.00 | 0.00 | 76 | 1011.5 |
| 20260502063232 | 50 | 264 | 1.0 | 3.0 | 0.00 | 0.00 | 0.00 | 75 | 1011.7 |
| 20260502063202 | 50 | 263 | 2.0 | 3.0 | 0.00 | 0.00 | 0.00 | 75 | 1011.7 |
| 20260502062203 | 50 | 260 | 3.0 | 4.0 | 0.00 | 0.00 | 0.00 | 74 | 1011.8 |
| 20260502061204 | 50 | 242 | 3.0 | 4.0 | 0.00 | 0.00 | 0.00 | 73 | 1012.0 |
| 20260502060232 | 50 | 255 | 3.0 | 4.0 | 0.00 | 0.00 | 0.00 | 73 | 1011.8 |
| 20260502060202 | 50 | 259 | 2.0 | 4.0 | 0.00 | 0.00 | 0.00 | 73 | 1011.8 |
| 20260502055204 | 50 | 249 | 3.0 | 5.0 | 0.00 | 0.00 | 0.00 | 73 | 1011.8 |
| 20260502054203 | 50 | 253 | 3.0 | 5.0 | 0.00 | 0.00 | 0.00 | 73 | 1011.9 |
| 20260502053202 | 50 | 255 | 1.0 | 6.0 | 0.00 | 0.00 | 0.00 | 74 | 1012.0 |
| 20260502052203 | 50 | 260 | 2.0 | 4.0 | 0.00 | 0.00 | 0.00 | 75 | 1012.2 |
| 20260502051203 | 50 | 253 | 2.0 | 4.0 | 0.00 | 0.00 | 0.00 | 75 | 1012.1 |
| 20260502050202 | 50 | 259 | 3.0 | 4.0 | 0.00 | 0.00 | 0.00 | 74 | 1012.0 |
| 20260502045234 | 50 | 248 | 4.0 | 4.0 | 0.00 | 0.00 | 0.00 | 73 | 1012.0 |
| 20260502045203 | 50 | 248 | 4.0 | 4.0 | 0.00 | 0.00 | 0.00 | 73 | 1012.0 |
| 20260502044203 | 50 | 267 | 3.0 | 4.0 | 0.00 | 0.00 | 0.00 | 72 | 1012.1 |
| 20260502043204 | 50 | 260 | 2.0 | 4.0 | 0.00 | 0.00 | 0.00 | 71 | 1012.1 |
| 20260502042204 | 51 | 249 | 3.0 | 4.0 | 0.00 | 0.00 | 0.00 | 70 | 1012.2 |
| 20260502041233 | 51 | 257 | 2.0 | 4.0 | 0.00 | 0.00 | 0.00 | 69 | 1012.1 |
| 20260502041202 | 51 | 257 | 2.0 | 4.0 | 0.00 | 0.00 | 0.00 | 69 | 1012.1 |
| 20260502040204 | 51 | 256 | 3.0 | 4.0 | 0.00 | 0.00 | 0.00 | 69 | 1012.1 |
| 20260502035203 | 51 | 263 | 2.0 | 4.0 | 0.00 | 0.00 | 0.00 | 69 | 1012.2 |
| 20260502034203 | 52 | 260 | 3.0 | 5.0 | 0.00 | 0.00 | 0.00 | 68 | 1012.3 |
| 20260502033204 | 51 | 285 | 3.0 | 5.0 | 0.00 | 0.00 | 0.00 | 69 | 1012.3 |
| 20260502032203 | 51 | 273 | 3.0 | 5.0 | 0.00 | 0.00 | 0.00 | 69 | 1012.2 |
| 20260502031203 | 52 | 283 | 3.0 | 7.0 | 0.00 | 0.00 | 0.00 | 69 | 1012.3 |
| 20260502030203 | 52 | 271 | 3.0 | 5.0 | 0.00 | 0.00 | 0.00 | 68 | 1012.2 |
| 20260502025204 | 52 | 257 | 3.0 | 4.0 | 0.00 | 0.00 | 0.00 | 68 | 1012.1 |
| 20260502024204 | 52 | 276 | 4.0 | 5.0 | 0.00 | 0.00 | 0.00 | 68 | 1011.9 |
| 20260502023203 | 52 | 266 | 3.0 | 4.0 | 0.00 | 0.00 | 0.00 | 67 | 1011.8 |
| 20260502022204 | 52 | 264 | 3.0 | 5.0 | 0.00 | 0.00 | 0.00 | 67 | 1011.7 |
| 20260502021203 | 52 | 259 | 3.0 | 5.0 | 0.00 | 0.00 | 0.00 | 67 | 1011.8 |
| 20260502020204 | 52 | 285 | 2.0 | 6.0 | 0.00 | 0.00 | 0.00 | 67 | 1011.8 |
| 20260502015203 | 52 | 259 | 2.0 | 5.0 | 0.00 | 0.00 | 0.00 | 66 | 1011.8 |
| 20260502014203 | 52 | 248 | 5.0 | 6.0 | 0.00 | 0.00 | 0.00 | 66 | 1011.8 |